Location: *
(49.2333°S, 177.3500°W)
Time: 10:57:24
(UTC+00:00)

Daily predictions for brighter satellites

Satellite Brightness Start Highest point End
(mag) Time Altitude Azimuth Time Altitude Azimuth Time Altitude Azimuth
ATLAS 2AS CENTAUR R/B 4.4 13:52:36 23° ESE 13:52:36 23° ESE 13:55:28 10° E
ADEOS II 4.5 14:04:42 18° SSE 14:04:42 18° SSE 14:06:30 10° S
SL-16 R/B 4.5 14:12:17 10° SE 14:16:58 21° E 14:18:42 19° ENE
Lacrosse 5 3.8 14:41:52 26° SE 14:41:52 26° SE 14:44:24 10° SE
Cosmos 2278 Rocket 3.5 15:11:19 30° S 15:11:19 30° S 15:14:41 10° SSE
Cosmos 1709 Rocket 4.1 15:10:28 73° ESE 15:10:28 73° ESE 15:16:16 10° SSE
Lacrosse 5 rocket 3.4 15:13:58 27° SSE 15:13:58 27° SSE 15:16:54 10° ESE
ADEOS Rocket 3.9 15:15:57 39° SSW 15:15:57 39° SSW 15:19:33 10° SSW
USA 215 3.4 15:11:48 10° ESE 15:18:23 63° NE 15:19:02 60° NNE
Meteor 1-27 Rocket 4.4 15:18:14 10° S 15:24:08 56° ESE 15:29:50 10° NNE
Meteor 1-10 Rocket 4.4 15:21:25 10° SSW 15:26:40 69° SSW 15:26:40 69° SSW
Cosmos 1818 3.8 15:28:50 66° ENE 15:28:50 66° ENE 15:33:57 10° SE
SME Rocket 4.0 15:31:13 10° SSE 15:34:25 51° S 15:34:25 51° S
Sich 1 Rocket 4.4 15:39:15 43° NE 15:40:11 50° E 15:44:42 10° SSE
ADEOS II 4.0 15:45:38 17° SSW 15:45:38 17° SSW 15:46:48 10° SSW
ATLAS 2AS CENTAUR R/B 2.3 15:40:05 54° SW 15:41:37 90° ESE 15:48:00 10° NE
Cosmos 2184 Rocket 4.5 15:35:46 11° N 15:41:46 59° E 15:47:55 10° SSE
Cosmos 44 3.7 15:49:56 52° NNE 15:49:56 52° NNE 15:53:40 10° NE
Cosmos 2369 Rocket 3.2 15:46:31 19° N 15:50:18 44° ENE 15:55:46 10° SE
CZ-4 R/B 3.9 15:48:38 10° ENE 15:51:44 22° ESE 15:54:54 10° SSE
EO 1 Del DPAF 3.9 15:48:15 10° SSE 15:51:37 57° SE 15:51:37 57° SE
Timation 1 Rocket 4.3 15:52:33 60° WSW 15:52:57 61° SW 15:58:59 10° SSE
Meteor 2-3 Rocket 4.2 15:54:12 44° SW 15:54:12 44° SW 15:58:56 10° S
Okean 3 4.1 15:49:52 10° S 15:54:15 57° ESE 15:58:33 10° NNE
Cosmos 1378 Rocket 3.7 15:50:08 10° S 15:54:35 70° E 15:58:56 10° NNE
Cosmos 1241 Rocket 4.4 15:51:48 23° SW 15:55:57 89° SE 16:02:10 10° NE
BREEZE M DEB (TANK) 2.9 15:56:24 69° W 15:57:00 87° S 16:08:49 10° E
Cosmos 1825 3.0 15:57:19 46° NE 15:57:56 51° E 16:01:45 10° SSE
BREEZE M DEB (TANK) 3.7 15:57:35 60° W 15:58:37 87° S 16:12:07 10° E
Cosmos 1943 Rocket 4.3 15:56:23 10° NNE 16:00:45 24° ENE 16:05:07 10° SE
SL-16 R/B 2.4 15:54:58 10° SSE 16:01:16 77° WSW 16:03:48 38° NNW
Radarsat Rocket 3.9 15:56:30 10° N 16:02:42 65° WNW 16:08:35 10° SSW
SL-24 R/B 4.2 15:59:19 10° NNE 16:03:36 67° ESE 16:07:29 10° S
MOS 1 Rocket 3.3 16:01:39 36° N 16:03:39 72° W 16:08:54 10° SSW
Meteor 2-6 Rocket 4.3 15:58:16 10° SSW 16:04:01 57° W 16:09:49 10° N
deb Kosmos-1763 4.5 16:04:36 47° S 16:05:37 70° ESE 16:09:35 10° NNE
Okean 2 Rocket 4.3 16:08:09 10° NNE 16:12:27 43° E 16:16:48 10° SSE
Cosmos 1733 Rocket 3.8 16:14:00 40° SW 16:14:00 40° SW 16:17:26 10° S
Tiangong 1 3.5 16:14:00 15° NNE 16:14:00 15° NNE 16:15:30 10° ENE
Cosmos 1331 Rocket 3.9 16:12:13 46° NW 16:13:49 77° WSW 16:19:11 10° SSE
Cosmos 1486 Rocket 4.0 16:12:05 34° SW 16:14:13 56° WNW 16:19:26 10° N
NOSS 2-3 (E) 4.3 16:10:13 15° SW 16:15:56 84° NW 16:21:27 10° NE
UNK 4.2 16:17:14 10° S 16:21:32 41° WSW 16:21:32 41° WSW
Lacrosse 5 3.0 16:21:03 24° SW 16:23:24 36° S 16:28:11 10° ESE
Cosmos 1782 Rocket 3.9 16:20:24 10° N 16:24:49 69° E 16:29:20 10° SSE
Cosmos 1238 Rocket 2.3 16:21:11 10° S 16:24:54 89° W 16:28:04 10° N
GENESIS II 4.0 16:25:01 65° WSW 16:25:06 65° SW 16:28:55 10° SE
Cosmos 1975 Rocket 2.9 16:23:09 10° S 16:27:38 84° W 16:32:01 10° N
ATLAS CENTAUR R/B 3.3 16:27:10 10° N 16:30:05 24° ENE 16:33:06 10° ESE
BREEZE-M DEB (TANK) 3.5 16:32:06 40° NW 16:32:26 41° NW 16:35:07 10° NE
Ariane Rocket 3.2 16:28:44 10° N 16:33:42 49° W 16:38:46 10° SSW
Gblst 52 Del rocket 4.4 16:32:13 31° WSW 16:35:05 74° S 16:41:19 10° E
COBE Rocket 4.1 16:32:34 10° NNW 16:37:08 42° W 16:41:41 10° SSW
MOZ.5/SAFIR/RUBIN 5/SL-8 3.7 16:33:53 10° SSE 16:38:41 80° WSW 16:43:24 10° NNW
SL-06 R/B(2) 4.2 16:34:18 10° NW 16:41:25 67° NE 16:43:51 10° SE
Cosmos 1354 Rocket 4.0 16:37:59 10° SSW 16:43:14 58° WNW 16:48:23 10° N
NOSS 2-3 (C) 4.4 16:37:39 11° SW 16:44:07 58° WNW 16:49:27 10° NNE
Cosmos 1908 Rocket 3.8 16:43:04 29° NW 16:44:58 47° WSW 16:49:18 10° S
SMAP 4.0 16:41:11 10° NE 16:45:44 52° ESE 16:50:22 10° S
Cosmos 2344 4.5 16:34:50 10° SW 16:47:03 53° WNW 16:56:07 10° N
Cosmos 1862 3.8 16:50:47 30° WNW 16:52:07 38° WSW 16:56:02 10° S
Lacrosse 5 rocket 2.1 16:49:42 18° SW 16:52:52 55° SSE 16:57:27 10° ENE
Cosmos 1812 3.9 16:49:21 10° S 16:53:12 46° ESE 16:57:01 10° NNE
BREEZE-M R/B 2.8 16:52:06 26° WNW 16:54:39 83° N 16:57:41 10° E
Cosmos 2278 Rocket 4.2 16:53:10 11° SW 16:55:04 13° SSW 16:57:34 10° S
CSL-04 Rocket 3.9 16:51:25 10° N 16:56:27 43° W 17:01:36 10° SSW
Meteor 1-18 Rocket 4.4 16:51:46 10° S 16:57:31 77° ESE 17:03:18 10° NNE
Aureole 1 4.4 16:55:57 18° SW 16:58:04 54° WNW 17:01:33 10° N
Cosmos 1833 4.2 16:54:46 10° SSW 17:00:31 65° WNW 17:06:08 10° NNE
USA 215 3.5 16:54:53 10° ESE 17:01:25 62° SSW 17:06:24 18° W
Cosmos 2219 3.5 16:55:39 10° SSW 17:01:30 73° ESE 17:07:16 10° NE
Cosmos 1408 3.6 17:03:47 25° W 17:04:46 28° WSW 17:08:07 10° S
NOSS 3-4 (A) 4.2 17:02:43 10° SW 17:10:03 64° SE 17:16:51 10° ENE
NOSS 3-4 (C) 4.2 17:02:50 10° SW 17:10:09 64° SE 17:16:57 10° ENE
Cosmos 1818 4.5 17:09:29 19° W 17:12:34 32° SW 17:17:25 10° SSE
YAOGAN 1 2.6 17:20:52 10° N 17:25:13 64° WNW 17:29:38 10° SSW
Cosmos 2151 Rocket 3.6 17:21:59 10° NNW 17:26:30 76° WSW 17:31:07 10° S
Cosmos 2154 Rocket 4.2 17:20:22 10° NNW 17:26:32 50° WSW 17:32:44 10° S
CZ-4 R/B 1.7 17:22:43 10° N 17:26:32 43° W 17:30:29 10° SSW
SJ-7 4.3 17:22:29 10° N 17:26:33 81° WNW 17:30:42 10° SSW
ATLAS 2AS CENTAUR R/B 3.7 17:27:34 11° WSW 17:31:43 20° WNW 17:36:12 10° NNW
Cosmos 1825 3.9 17:32:16 13° W 17:33:55 16° WSW 17:36:22 10° SSW
Cosmos 2369 Rocket 2.8 17:29:05 10° WNW 17:34:26 39° SW 17:39:51 10° SSE
MSX 4.2 17:30:36 10° NNE 17:36:22 74° ESE 17:42:14 10° SSW
SJ-12 4.1 17:33:43 10° N 17:37:47 52° W 17:41:53 10° SSW
COSMO-SKYMED 1 4.1 17:34:03 10° SSE 17:38:17 42° E 17:42:27 10° N
CZ-3B DEB 1.8 17:37:04 13° W 17:38:58 34° NNW 17:43:28 10° NE
SPOT 3 Rocket 4.1 17:38:19 10° NNW 17:43:13 38° W 17:48:10 10° SSW
SL-16 R/B 3.9 17:39:56 10° S 17:43:56 18° SW 17:47:55 10° W
Cosmos 1943 Rocket 2.2 17:38:31 10° NW 17:44:02 63° WSW 17:49:36 10° SSE
Cosmos 1777 Rocket 4.4 17:40:46 10° SSW 17:46:06 72° ESE 17:51:22 10° NNE
Cosmos 1484 Rocket 3.3 17:42:51 10° NNE 17:46:54 69° ESE 17:51:01 10° S
Okean 1 3.5 17:44:15 10° SSW 17:48:16 55° W 17:52:16 10° N
Blok-ML 4.2 17:41:44 10° WNW 17:48:27 43° SW 17:51:48 10° SSE
Tiangong 1 2.8 17:46:45 10° NW 17:49:22 25° N 17:52:01 10° ENE
SL-8 Rocket 4.1 17:43:31 10° NNW 17:49:51 67° WSW 17:56:16 10° S
Okean 1 Rocket 3.5 17:46:14 10° N 17:50:44 75° E 17:55:20 10° SSE
Okean 2 Rocket 4.3 17:47:04 10° WNW 17:50:45 24° WSW 17:54:27 10° SSW
CORIOLIS 4.4 17:45:51 10° N 17:51:10 51° W 17:56:35 10° SSW
PAYLOAD A 4.4 17:47:04 10° NNW 17:51:36 36° W 17:56:04 10° SSW
IDEFIX/ARIANE 42P 2.7 17:47:27 10° N 17:52:42 61° W 17:58:01 10° SSW
CZ-2C R/B 2.5 17:48:39 10° N 17:53:08 49° W 17:57:42 10° SSW
Cosmos 2341 Rocket 4.5 17:47:07 10° NW 17:53:10 42° WSW 17:59:17 10° S
MONITOR-E 4.5 17:50:58 10° N 17:54:10 51° W 17:57:26 10° SSW
Thor Agena Rocket 4.1 17:51:34 10° S 17:56:16 38° WSW 18:00:57 10° NW
